TimePST,TemperatureF,Dew PointF,Humidity,Sea Level PressureIn,VisibilityMPH,Wind Direction,Wind SpeedMPH,Gust SpeedMPH,PrecipitationIn,Events,Conditions,WindDirDegrees,DateUTC
12:22 AM,37.4,35.6,93,30.19,10.0,NE,3.5,-,N/A,,Mostly Cloudy,40,2013-02-08 08:22:00
12:40 AM,35.6,33.8,93,30.19,10.0,NNE,3.5,-,N/A,,Scattered Clouds,20,2013-02-08 08:40:00
12:53 AM,36.0,34.0,93,30.20,10.0,North,3.5,-,N/A,,Clear,10,2013-02-08 08:53:00
1:01 AM,35.6,33.8,93,30.19,10.0,NNE,4.6,-,N/A,,Scattered Clouds,20,2013-02-08 09:01:00
1:11 AM,37.4,35.6,93,30.19,10.0,NNE,3.5,-,N/A,,Mostly Cloudy,30,2013-02-08 09:11:00
1:24 AM,35.6,33.8,93,30.19,10.0,NNE,4.6,-,N/A,,Mostly Cloudy,30,2013-02-08 09:24:00
1:48 AM,35.6,33.8,93,30.20,10.0,Calm,Calm,-,N/A,,Scattered Clouds,0,2013-02-08 09:48:00
1:53 AM,35.1,34.0,96,30.22,10.0,Calm,Calm,-,N/A,,Partly Cloudy,0,2013-02-08 09:53:00
2:53 AM,34.0,32.0,92,30.22,6.0,Calm,Calm,-,N/A,,Clear,0,2013-02-08 10:53:00
3:53 AM,34.0,32.0,92,30.23,9.0,Calm,Calm,-,N/A,,Clear,0,2013-02-08 11:53:00
4:04 AM,33.8,32.0,93,30.22,2.0,North,3.5,-,N/A,,Partly Cloudy,10,2013-02-08 12:04:00
4:06 AM,33.8,32.0,93,30.22,1.0,NNE,3.5,-,N/A,,Mist,20,2013-02-08 12:06:00
4:12 AM,33.8,32.0,93,30.22,0.2,North,3.5,-,N/A,Fog,Fog,360,2013-02-08 12:12:00
4:21 AM,33.8,33.8,100,30.22,0.5,Calm,Calm,-,N/A,Fog,Fog,0,2013-02-08 12:21:00
4:25 AM,33.8,33.8,100,30.23,0.5,Calm,Calm,-,N/A,Fog,Fog,0,2013-02-08 12:25:00
4:37 AM,33.8,33.8,100,30.23,0.5,Calm,Calm,-,N/A,Fog,Fog,0,2013-02-08 12:37:00
4:43 AM,33.8,33.8,100,30.23,1.0,Calm,Calm,-,N/A,,Mist,0,2013-02-08 12:43:00
4:50 AM,33.8,32.0,93,30.23,1.0,Calm,Calm,-,N/A,,Mist,0,2013-02-08 12:50:00
4:53 AM,33.1,32.0,96,30.25,1.2,NNE,3.5,-,N/A,,Scattered Clouds,20,2013-02-08 12:53:00
4:58 AM,33.8,32.0,93,30.23,3.0,NNE,3.5,-,N/A,,Partly Cloudy,30,2013-02-08 12:58:00
5:53 AM,34.0,32.0,92,30.25,10.0,ENE,3.5,-,N/A,,Scattered Clouds,60,2013-02-08 13:53:00
6:53 AM,32.0,30.0,92,30.26,10.0,Calm,Calm,-,N/A,,Clear,0,2013-02-08 14:53:00
7:26 AM,33.8,30.2,87,30.25,3.0,Calm,Calm,-,N/A,Fog,Patches of Fog,0,2013-02-08 15:26:00
7:28 AM,33.8,32.0,93,30.25,1.5,Calm,Calm,-,N/A,Fog,Patches of Fog,0,2013-02-08 15:28:00
7:36 AM,33.8,32.0,93,30.26,0.2,North,3.5,-,N/A,Fog,Patches of Fog,350,2013-02-08 15:36:00
7:38 AM,33.8,32.0,93,30.26,0.2,Calm,Calm,-,N/A,Fog,Patches of Fog,0,2013-02-08 15:38:00
7:46 AM,33.8,32.0,93,30.26,10.0,NNE,3.5,-,N/A,Fog,Patches of Fog,30,2013-02-08 15:46:00
7:53 AM,33.1,32.0,96,30.28,7.0,Calm,Calm,-,N/A,Fog,Patches of Fog,0,2013-02-08 15:53:00
7:55 AM,33.8,32.0,93,30.26,0.2,Calm,Calm,-,N/A,Fog,Patches of Fog,0,2013-02-08 15:55:00
7:58 AM,33.8,32.0,93,30.26,0.2,Calm,Calm,-,N/A,Fog,Patches of Fog,0,2013-02-08 15:58:00
8:05 AM,33.8,32.0,93,30.26,1.5,NNE,4.6,-,N/A,Fog,Patches of Fog,20,2013-02-08 16:05:00
8:09 AM,33.8,32.0,93,30.27,8.0,NNE,3.5,-,N/A,Fog,Patches of Fog,20,2013-02-08 16:09:00
8:53 AM,35.6,33.8,93,30.27,10.0,Calm,Calm,-,N/A,,Overcast,0,2013-02-08 16:53:00
9:53 AM,39.0,35.1,86,30.30,10.0,NNE,4.6,-,N/A,,Overcast,20,2013-02-08 17:53:00
10:30 AM,37.4,35.6,93,30.29,10.0,Calm,Calm,-,N/A,,Mostly Cloudy,0,2013-02-08 18:30:00
10:53 AM,39.0,35.1,86,30.31,10.0,Calm,Calm,-,N/A,,Mostly Cloudy,0,2013-02-08 18:53:00
10:56 AM,39.2,35.6,87,30.29,10.0,North,3.5,-,N/A,,Overcast,10,2013-02-08 18:56:00
11:53 AM,42.1,35.1,76,30.30,10.0,North,3.5,-,N/A,,Overcast,10,2013-02-08 19:53:00
12:00 PM,42.8,35.6,76,30.28,10.0,NNE,4.6,-,N/A,,Mostly Cloudy,20,2013-02-08 20:00:00
12:53 PM,41.0,35.1,79,30.29,10.0,North,4.6,-,N/A,,Mostly Cloudy,360,2013-02-08 20:53:00
1:53 PM,42.1,35.1,76,30.29,10.0,NNE,4.6,-,N/A,,Overcast,20,2013-02-08 21:53:00
2:53 PM,42.1,33.1,70,30.29,10.0,North,3.5,-,N/A,,Mostly Cloudy,10,2013-02-08 22:53:00
3:53 PM,41.0,33.1,73,30.30,10.0,North,3.5,-,N/A,,Overcast,360,2013-02-08 23:53:00
4:53 PM,41.0,34.0,76,30.29,10.0,Calm,Calm,-,N/A,,Overcast,0,2013-02-09 00:53:00
5:53 PM,39.9,34.0,79,30.29,10.0,Calm,Calm,-,N/A,,Overcast,0,2013-02-09 01:53:00
6:53 PM,39.9,34.0,79,30.28,10.0,Calm,Calm,-,N/A,,Overcast,0,2013-02-09 02:53:00
7:53 PM,39.9,35.1,83,30.29,10.0,Calm,Calm,-,N/A,,Overcast,0,2013-02-09 03:53:00
8:53 PM,39.9,35.1,83,30.29,10.0,Calm,Calm,-,N/A,,Overcast,0,2013-02-09 04:53:00
9:53 PM,39.9,35.1,83,30.29,10.0,Calm,Calm,-,N/A,,Overcast,0,2013-02-09 05:53:00
10:53 PM,39.9,35.1,83,30.28,10.0,Calm,Calm,-,N/A,,Overcast,0,2013-02-09 06:53:00
11:53 PM,39.9,35.1,83,30.28,10.0,Calm,Calm,-,N/A,,Overcast,0,2013-02-09 07:53:00